Location: Wiesbaden
(50.0830°N, 8.2500°E)
Time: 20:14:44
(UTC+02:00)

ISS - Pass Details

Date: 14 July 2019
Orbit: 409 x 418 km, 51.6° (Epoch: 20 July)

Event Time Altitude Azimuth Distance (km) Brightness Sun altitude
Exits shadow 01:36:22 55° 230° (SW) 500 -3.7 -18.2°
Maximum altitude 01:36:58 76° 161° (SSE) 429 -4.0 -18.2°
Drops below altitude 10° 01:40:17 10° 75° (ENE) 1,482 -0.8 -18.1°
Sets 01:42:23 0° 74° (ENE) 2,345 0.3 -18.1°
